Left ArrowRight Arrow

Hourly Observations for May 22, 2024

Temp ( °F °C ) Dew Point ( °F °C ) Humidity (%) Winds ( mph kmh ) Pressure ( in mb ) Visibility ( mi km ) Precip ( " mm )
12:54 am 00:54 Clear 64 17.8 62 16.7 93 93 Calm 30.00 1016 10 16 0.00 0.00
1:54 am 01:54 Clear 63 17.2 61 16.1 93 93 Calm 30.01 1016 10 16 0.00 0.00
2:54 am 02:54 Clear 63 17.2 61 16.1 93 93 Calm 30.00 1016 10 16 0.00 0.00
3:54 am 03:54 Clear 62 16.7 60 15.6 93 93 Calm 30.01 1016 10 16 0.00 0.00
4:54 am 04:54 Clear 60 15.6 59 15 96 96 Calm 30.01 1016 9 14 0.00 0.00
5:54 am 05:54 Clear 60 15.6 58 14.4 93 93 Calm 30.02 1017 9 14 0.00 0.00
6:54 am 06:54 Sunny 61 16.1 59 15 93 93 Calm 30.04 1017 10 16 0.00 0.00
7:54 am 07:54 Sunny 66 18.9 62 16.7 87 87 SW 3 6 30.05 1018 10 16 0.00 0.00
8:54 am 08:54 Sunny 70 21.1 63 17.2 78 78 VRB 5 7 30.06 1018 10 16 0.00 0.00
9:54 am 09:54 Sunny 75 23.9 64 17.8 69 69 VRB 3 6 30.05 1018 10 16 0.00 0.00
10:54 am 10:54 Sunny 78 25.6 62 16.7 58 58 SW 7 11 30.04 1017 10 16 0.00 0.00
11:54 am 11:54 Sunny 80 26.7 63 17.2 56 56 SW 5 7 30.04 1017 10 16 0.00 0.00
12:54 pm 12:54 Sunny 83 28.3 64 17.8 53 53 SSE 8 13 30.02 1017 10 16 0.00 0.00
1:54 pm 13:54 Mostly Sunny 83 28.3 64 17.8 53 53 S 5 7 30.01 1016 10 16 0.00 0.00
2:54 pm 14:54 Partly Cloudy 84 28.9 64 17.8 51 51 VRB 6 9 30.00 1016 10 16 0.00 0.00
3:54 pm 15:54 Sunny 84 28.9 64 17.8 51 51 SSE 8 13 29.97 1015 10 16 0.00 0.00
4:54 pm 16:54 Mostly Sunny 84 28.9 64 17.8 51 51 S 8 13 29.97 1015 10 16 0.00 0.00
5:54 pm 17:54 Mostly Sunny 81 27.2 63 17.2 54 54 S 3 6 29.97 1015 10 16 0.00 0.00
6:54 pm 18:54 Sunny 81 27.2 63 17.2 54 54 SSW 6 9 29.96 1015 10 16 0.00 0.00
7:54 pm 19:54 Sunny 77 25 65 18.3 66 66 Calm 29.97 1015 10 16 0.00 0.00
8:54 pm 20:54 Clear 72 22.2 65 18.3 79 79 Calm 29.98 1015 10 16 0.00 0.00
9:54 pm 21:54 Clear 70 21.1 65 18.3 84 84 Calm 30.00 1016 10 16 0.00 0.00
10:54 pm 22:54 Clear 69 20.6 65 18.3 87 87 Calm 30.01 1016 10 16 0.00 0.00
11:54 pm 23:54 Clear 67 19.4 64 17.8 90 90 Calm 30.00 1016 10 16 0.00 0.00

Powered by Vaisala Xweather